Simultaneous Nadir Overpasses (SNOs) Predictions

Prediction of SNOs between GOES-14 and NOAA-20 Satellite Orbit:

Table of predicted SNOs for the next 14.0 days since TLE Epoch: 7/3/2021
Index Date Time (GOES-14) GOES-14 Lat,Lon NOAA-20 Lat,Lon Distance(km) Time Diff (sec)
1 07/03/2021 08:36:51 -0.13,-104.09 0.78,-108.27 475.23 80
2 07/04/2021 08:20:46 -0.12,-104.09 -0.18,-103.72 41.58 80
3 07/06/2021 20:21:19 0.14,-104.34 0.12,-104.53 20.48 80
4 07/07/2021 20:05:14 0.12,-104.34 1.08, -99.98 496.36 80
5 07/09/2021 08:24:22 -0.16,-104.09 0.08,-105.26 132.25 80
6 07/10/2021 08:08:17 -0.15,-104.09 -0.89,-100.72 384.23 80
7 07/11/2021 20:27:35 0.18,-104.33 -0.18,-106.05 194.99 80
8 07/12/2021 20:11:30 0.16,-104.34 0.78,-101.51 321.82 80
9 07/14/2021 08:30:38 -0.20,-104.09 0.38,-106.78 306.11 80
10 07/15/2021 08:14:32 -0.18,-104.09 -0.58,-102.24 210.43 80
11 07/16/2021 20:33:51 0.22,-104.33 -0.48,-107.57 369.27 80
